Weather Roundup
Issued by NWS

Home | Current Version | Previous Version | Text Only | Print | Product List | Glossary On
Versions: 1 2 3 4 5 6 7 8 9 10 11 12 13 14 15 16 17 18 19 20 21 22 23 24 25 26 27 28 29 30 31 32 33 34 35 36 37 38 39 40 41 42 43 44 45 46 47 48 49 50
000
NZUS93 KARX 272310
HRRWXR

CURRENT HOURLY OBSERVATIONS ACROSS
MUCH OF THE UPPER MISSISSIPPI VALLEY
NATIONAL WEATHER SERVICE LA CROSSE WI
500 PM CST THU NOV 27 2014


...SOUTHEAST MINNESOTA...


CITY           SKY/WX    TMP DP  RH WIND       PRES   REMARKS
ROCHESTER      MOCLDY    -1  -8  72 W5        30.37F WCI -11
ROCHESTER/MAYO FAIR       8  -2  66 SW5       30.39F WCI  -1
WINONA         CLEAR     10   1  67 CALM      30.44F
AUSTIN         PTCLDY    -2  -8  78 CALM      30.37F
ALBERT LEA     PTCLDY     0  -6  78 SE2       30.37F
DODGE CENTER   MOCLDY    -4  -9  77 CALM      30.36F
PRESTON        MOCLDY     3  -4  71 CALM      30.38F
OWATONNA       PTCLDY    -8 -13  77 S3        30.38F
FARIBAULT      PTCLDY     1  -8  66 CALM      30.40S
$$

...ELSEWHERE IN MINNESOTA...


CITY           SKY/WX    TMP DP  RH WIND       PRES   REMARKS
MINNEAPOLIS    PTCLDY     7  -5  57 SW7       30.41F WCI  -5
INTNL FALLS    PTCLDY    -3  -8  79 CALM      30.31F
DULUTH         CLEAR      5  -8  55 W3        30.30F
RED WING       PTCLDY     7  -2  66 CALM      30.41F
REDWOOD FALLS  PTCLDY     1  -5  75 SE10      30.35F WCI -15
MANKATO        PTCLDY    -2 -11  65 SE7       30.38F WCI -16
WORTHINGTON    CLOUDY     7   0  72 SE10      30.28F WCI  -8
FAIRMONT       PTCLDY    -2  -8  78 SE7       30.34F WCI -16
$$

...SOUTHWEST WISCONSIN...


CITY           SKY/WX    TMP DP  RH WIND       PRES   REMARKS
LA CROSSE      CLEAR      9  -2  61 N3        30.43F
PRAIRIE DU CHI CLEAR     12  -2  52 NW3       30.44F
BOSCOBEL       CLEAR     12  -3  51 NW3       30.44S
LONE ROCK      CLEAR     16  -2  45 NW3       30.42F
PLATTEVILLE    CLEAR     14   0  53 CALM      30.40F
FORT MC COY    CLEAR      8   1  73 CALM      30.42F
CAMP DOUGLAS   CLEAR      7   1  78 W6        30.40F WCI  -4
VIROQUA        FAIR       5  -3  69 CALM      30.37S
WIS DELLS      CLEAR     11   4  74 CALM      30.39S
$$

...ELSEWHERE IN WISCONSIN...


CITY           SKY/WX    TMP DP  RH WIND       PRES   REMARKS
MILWAUKEE      PTCLDY    19   7  59 W8        30.39R WCI   9
MADISON        PTCLDY    14   6  70 NW5       30.40R WCI   6
GREEN BAY      CLEAR     12   3  67 W7        30.37R WCI   1
EAU CLAIRE     CLEAR      6  -5  60 CALM      30.39F
BLACK RVR FLS  FAIR       8  -2  64 CALM      30.41F
MEDFORD        CLEAR      6  -3  68 W3        30.32F
WAUSAU         CLEAR      8   0  69 W9        30.34S WCI  -5
WIS RAPIDS     CLEAR      8  -3  61 NW3       30.39F
MARSHFIELD     CLEAR      3  -5  69 W3        30.35F
RICE LAKE      CLEAR      7  -5  57 CALM      30.39F
$$

...NORTHEAST IOWA...


CITY           SKY/WX    TMP DP  RH WIND       PRES   REMARKS
DECORAH        PTCLDY     7  -4  61 CALM      30.39F
MASON CITY     PTCLDY    -1  -6  79 CALM      30.39F
CHARLES CITY   PTCLDY     5  -6  61 NE3       30.41F
OELWEIN        CLEAR      5  -2  72 NW6       30.42F WCI  -6
$$

...ELSEWHERE IN IOWA...


CITY           SKY/WX    TMP DP  RH WIND       PRES   REMARKS
DES MOINES     CLOUDY    14  -1  51 SE8       30.43F WCI   3
IOWA CITY      CLEAR     12   2  64 NW7       30.49R WCI   1
FORT DODGE     CLOUDY     3  -4  72 E7        30.39F WCI  -9
$$

...NORTHERN ILLINOIS...


CITY           SKY/WX    TMP DP  RH WIND       PRES   REMARKS
CHICAGO-OHARE  MOCLDY    22  11  62 NW10      30.38R WCI  11
CHICAGO-MIDWAY FLURRIES  25  15  66 NW8       30.39R WCI  16
MOLINE         CLEAR     17   2  51 NW10      30.45S WCI   5
ROCKFORD       PTCLDY    19   9  65 NW7       30.43R WCI  10
PEORIA         CLEAR     20   9  62 W7        30.46R WCI  11
$$

NOTE: "FAIR" INDICATES FEW OR NO CLOUDS BELOW 12,000 FEET WITH NO
SIGNIFICANT WEATHER AND/OR OBSTRUCTIONS TO VISIBILITY. WIND
SPEEDS ARE IN MILES-PER-HOUR.



USA.gov is the U.S. government's official web portal to all federal, state and local government web resources and services.